Theta_e
322 323 323 325 325 326 327 327 327 326 326 327 326 327 327 327 325 311 307 313 317 330 326 312 311 311 312 310 310 308 303 300 299 298 301 301 301 301 300 301 300 302 301 300 304
321 322 323 323 324 325 326 326 326 326 325 326 326 326 327 326 312 308 317 326 329 329 311 310 308 310 309 307 307 305 302 300 303 302 301 301 302 302 300 300 300 300 301 298 301
320 320 321 322 323 324 325 325 325 325 325 325 325 326 325 323 310 308 323 328 328 324 311 310 309 308 306 307 305 303 302 301 302 303 302 301 300 302 301 300 304 303 304 299 299
318 319 320 320 322 323 324 324 325 325 325 324 325 325 324 315 301 310 324 322 324 314 309 307 307 306 305 303 303 301 301 302 302 302 301 300 301 299 301 305 303 305 304 300 298
316 316 318 319 321 322 323 323 324 325 324 324 325 324 317 308 309 312 318 316 311 309 307 306 306 305 304 302 302 301 301 302 303 301 301 299 300 301 300 304 305 300 299 299 299
316 315 315 317 319 321 322 322 323 324 324 324 325 323 311 302 311 310 308 308 308 308 306 306 306 305 303 303 302 301 301 302 301 301 301 299 301 297 303 300 301 299 299 300 299
316 315 315 316 318 319 321 322 323 323 323 323 325 316 308 306 311 309 308 306 306 307 305 304 306 305 304 300 301 299 299 302 300 300 299 299 298 298 305 297 299 298 299 299 299
316 315 315 316 317 318 320 321 322 322 322 323 323 313 306 311 313 307 307 305 306 305 305 305 306 304 302 301 299 298 297 297 299 299 298 299 295 303 303 299 300 301 299 297 297
315 315 315 316 316 317 319 320 320 320 321 322 315 310 304 313 308 308 307 304 305 304 304 303 305 302 301 300 298 298 295 295 296 299 297 298 296 301 301 297 298 301 301 297 296
314 314 315 315 316 317 319 320 319 318 317 312 308 306 305 303 307 306 304 305 303 304 303 303 302 301 299 299 292 295 294 295 294 297 295 296 295 300 302 299 299 302 303 299 295
314 314 315 315 316 318 317 310 306 303 306 305 303 303 301 307 308 304 303 304 303 301 298 299 298 296 299 300 299 296 295 295 298 295 294 295 295 297 300 300 300 300 301 299 296
314 314 314 315 316 317 310 304 304 304 297 303 301 300 301 306 301 303 303 301 300 297 297 296 294 300 297 296 295 295 295 295 297 293 292 293 292 296 297 298 300 300 302 301 297
316 315 315 315 316 310 305 304 308 307 300 300 301 301 301 303 300 300 301 299 298 295 295 295 298 295 295 294 293 294 294 295 293 292 291 289 291 292 295 295 297 298 299 300 297
316 316 315 315 310 309 303 305 308 306 293 293 295 300 301 301 296 297 298 299 295 295 294 295 296 295 294 294 295 292 296 293 291 290 289 290 285 293 294 294 296 299 298 296 295
316 316 315 315 309 307 303 306 307 299 283 294 293 301 299 297 296 295 297 296 294 293 294 295 291 292 293 295 295 294 291 291 289 289 286 290 285 291 288 290 295 299 300 298 298
316 316 314 311 310 308 305 306 302 290 281 290 296 294 295 295 294 294 295 297 296 293 293 294 293 294 295 289 291 290 290 288 286 286 283 289 287 289 291 293 295 299 298 297 296
316 315 313 311 306 305 305 302 291 283 289 289 292 294 293 293 293 292 291 290 291 288 289 292 291 292 292 291 290 290 291 287 287 284 284 286 284 289 294 296 296 299 301 297 296
316 315 313 311 306 306 302 296 283 290 290 292 293 292 292 293 293 291 290 290 292 290 289 289 288 289 292 295 294 289 292 288 283 284 286 282 282 291 295 297 298 295 295 293 294
316 313 310 311 305 305 296 288 288 292 293 290 291 289 291 292 292 291 291 292 294 292 290 288 290 289 288 290 293 287 286 292 289 279 282 288 292 295 294 293 293 293 294 294 294
312 308 307 309 306 301 292 289 292 294 292 293 289 292 288 291 288 290 290 293 294 293 297 293 287 289 285 288 287 287 290 285 287 282 281 286 288 288 292 293 293 292 293 296 295
311 302 307 307 307 297 287 290 293 295 294 292 292 291 290 291 291 290 291 293 295 293 294 293 291 287 287 286 287 285 286 285 286 286 283 282 286 291 292 295 294 295 297 298 296
308 297 305 307 294 294 289 293 293 293 294 293 293 292 291 290 289 290 290 292 296 293 289 293 291 288 289 287 286 290 289 289 284 283 284 285 286 294 295 296 295 296 296 297 296
302 300 304 305 289 289 293 293 293 294 293 293 292 294 293 290 286 291 292 295 295 294 291 291 288 285 287 284 284 285 287 288 290 288 284 282 285 295 296 294 294 295 297 295 295
303 292 295 297 299 294 292 292 291 295 294 292 291 292 290 290 291 290 290 292 294 295 296 295 289 288 284 287 286 284 286 286 287 284 285 285 288 292 294 294 296 296 294 295 295
303 294 293 285 288 293 294 294 292 290 294 294 291 291 291 287 289 289 292 293 290 292 292 292 286 289 290 292 291 289 288 287 284 286 284 287 288 292 294 295 296 297 297 296 296
299 293 294 293 293 291 291 291 291 294 295 292 290 294 291 288 290 291 292 290 290 290 290 289 286 288 285 289 288 286 288 289 289 288 288 287 286 293 295 296 295 295 295 294 295
303 304 296 291 290 288 288 289 291 294 296 297 295 292 291 293 295 296 297 296 293 291 289 287 286 284 281 287 286 282 285 287 288 290 290 285 290 295 293 294 294 295 295 293 294
Wind_Speed
18 18 18 19 19 19 18 18 17 13 11 12 11 8 8 8 4 4 4 2 2 1 1 3 2 4 2 3 1 1 4 4 3 5 2 6 9 5 1 5 5 8 4 3 12
18 18 18 18 18 18 18 18 17 16 13 10 12 9 7 7 3 6 4 3 1 1 3 5 4 6 3 2 1 4 3 2 0 3 3 5 9 5 6 8 9 8 10 5 18
17 18 19 18 18 18 17 17 16 17 16 12 10 9 7 3 3 3 5 2 1 3 0 1 4 3 3 1 1 1 4 1 2 5 4 4 5 5 7 12 14 15 13 15 20
16 17 18 18 19 18 17 16 16 16 16 14 11 7 7 3 5 4 3 4 6 7 5 3 2 4 3 4 2 4 4 3 1 2 4 5 3 6 14 18 2 6 6 18 22
15 17 18 18 19 19 19 17 15 15 15 15 10 5 2 3 7 5 3 3 5 4 2 3 2 3 3 4 3 5 3 4 4 4 6 3 11 9 15 17 11 4 8 16 19
13 16 17 18 20 21 21 19 16 15 15 13 8 3 3 7 3 3 4 4 2 3 3 2 3 2 2 3 5 2 4 7 5 5 6 6 6 3 4 2 10 11 14 15 20
9 12 15 18 19 21 22 22 18 14 15 10 3 3 3 9 2 4 4 3 2 1 4 2 4 2 5 2 1 1 7 7 9 4 5 4 9 13 16 6 9 13 14 16 19
9 10 13 15 18 19 21 23 22 18 9 2 4 2 7 2 3 4 5 4 4 5 5 4 3 5 1 3 2 3 3 5 5 7 3 4 16 10 4 9 14 15 14 16 20
10 11 13 15 17 20 21 26 21 8 1 3 3 3 6 3 3 3 1 5 5 4 5 4 2 2 4 4 5 5 10 9 5 9 4 11 16 4 6 8 16 18 16 16 17
12 14 13 15 17 20 24 25 5 3 2 2 2 3 4 3 3 3 2 6 3 5 3 2 2 4 4 7 12 10 8 8 11 5 9 11 21 23 22 16 25 25 19 18 18
11 12 13 15 16 18 14 6 3 3 1 5 2 4 1 3 1 2 2 6 4 2 7 2 7 16 17 17 13 7 8 16 14 4 6 16 20 25 24 21 26 25 21 17 21
9 11 13 13 17 17 4 3 3 3 8 3 6 8 3 2 2 6 6 9 8 11 7 4 16 17 1 6 9 8 13 20 13 2 7 14 22 24 24 27 24 25 22 16 16
9 9 8 11 13 3 4 1 2 2 5 6 5 5 2 8 7 5 12 4 7 9 14 16 8 2 8 8 11 11 17 14 10 6 7 12 17 8 8 11 14 21 18 14 16
11 9 8 8 1 4 1 2 1 3 7 6 5 3 2 3 4 1 2 1 4 9 9 10 2 8 7 11 12 13 9 11 7 5 12 4 23 10 9 11 13 21 12 12 15
11 8 5 3 4 2 2 2 1 3 11 1 3 2 2 3 4 1 1 2 8 8 8 6 8 9 10 9 11 5 2 4 3 8 6 11 13 8 2 7 18 20 10 15 14
13 11 8 1 2 1 2 2 3 4 12 3 3 4 4 3 1 3 2 1 2 4 5 7 0 5 4 4 1 9 3 2 1 3 11 16 16 6 5 7 8 12 10 9 12
15 11 9 5 1 5 3 3 5 11 3 7 8 6 3 7 6 8 8 9 9 7 11 4 8 3 3 5 3 5 5 6 7 6 14 4 9 20 15 14 14 19 8 8 9
16 13 8 3 6 7 2 4 17 9 15 3 4 5 10 12 8 10 7 9 13 5 2 7 15 14 12 16 7 12 9 7 12 13 21 7 14 14 10 14 17 7 5 4 8
14 7 5 8 8 4 3 12 16 11 9 9 3 6 9 5 5 7 14 9 10 21 15 9 17 3 1 1 4 9 10 2 4 3 9 12 24 9 7 10 8 15 12 14 11
6 6 7 15 12 5 5 24 13 10 8 7 19 16 17 15 10 11 12 7 9 15 18 3 11 4 3 1 1 5 4 5 4 7 17 25 31 19 10 15 9 11 16 15 10
6 5 7 16 5 5 11 16 10 7 7 13 20 17 16 15 15 12 16 5 9 7 10 3 6 3 5 13 16 7 7 5 4 6 10 19 22 3 6 4 12 13 14 11 13
4 6 10 15 8 5 13 11 4 6 6 9 4 12 23 15 14 14 16 16 14 12 14 9 3 11 21 3 2 9 15 18 11 11 10 13 31 8 5 4 4 6 6 8 9
4 2 3 8 11 11 12 13 8 12 12 9 15 12 10 14 12 16 18 8 12 14 13 11 6 7 13 6 2 9 10 10 17 14 30 13 29 13 18 6 5 8 10 7 12
3 5 3 3 5 19 20 20 17 8 13 6 4 3 1 10 12 14 14 4 5 8 3 10 7 13 21 22 2 6 14 20 24 19 21 26 28 38 34 22 23 17 12 16 15
5 5 8 8 11 16 16 7 21 15 13 9 6 21 22 21 23 19 27 19 4 3 2 6 14 14 20 24 23 24 18 20 26 28 29 28 25 33 32 24 26 19 16 20 19
5 4 5 4 17 25 22 18 28 25 21 14 19 22 21 26 23 23 23 21 17 4 6 4 19 18 27 29 32 34 21 34 32 34 26 23 29 34 35 31 30 33 25 28 25
4 4 4 11 12 14 22 28 27 26 22 27 28 19 21 25 32 33 26 18 8 15 17 10 8 12 23 25 23 14 35 35 41 38 33 31 34 35 34 29 32 31 22 24 26
Wind_Direction
18 16 12 10 6 3 1 356 354 359 355 346 344 332 324 328 310 178 231 142 177 356 191 144 132 139 161 106 51 233 235 241 224 195 142 158 205 162 134 206 210 200 245 81 156
12 9 9 6 4 359 355 352 345 344 346 348 338 329 326 338 243 239 125 135 219 211 209 195 163 161 148 107 101 245 256 250 229 189 236 195 224 192 206 200 224 225 211 162 163
9 5 2 1 358 356 352 347 340 334 334 338 337 323 316 304 260 209 140 116 172 190 96 67 121 189 166 183 139 175 270 172 229 233 221 225 228 202 234 237 235 222 212 184 181
3 0 357 354 353 350 349 343 334 329 325 329 330 321 313 217 241 159 150 134 137 147 156 158 166 170 181 204 155 242 244 238 275 188 189 220 149 221 225 248 8 274 208 183 189
355 352 350 348 346 343 341 338 330 322 316 320 319 315 255 223 251 142 135 144 133 144 132 170 187 166 217 187 197 229 210 225 253 252 240 196 239 253 245 247 238 242 194 197 201
349 346 342 342 339 338 333 329 325 317 307 312 304 283 188 240 94 106 141 96 88 150 137 175 175 178 140 203 228 164 258 262 265 248 238 236 245 221 243 201 222 224 224 213 210
348 340 337 334 334 331 326 322 320 315 306 302 251 236 218 262 97 84 96 64 21 188 140 113 124 195 148 199 82 330 290 275 222 221 235 213 253 234 254 196 233 225 227 220 217
332 332 330 330 327 325 322 317 315 313 300 256 168 200 253 48 121 110 133 87 63 42 75 94 102 95 288 124 149 239 247 255 156 176 160 214 277 253 272 228 245 238 227 217 217
330 327 325 328 327 322 318 311 311 305 247 162 185 208 261 133 180 122 175 135 101 66 71 98 65 93 166 223 251 210 272 230 268 210 155 215 279 258 203 232 262 257 244 228 220
320 324 323 327 325 323 321 303 275 279 185 216 103 232 159 215 137 125 75 137 121 126 130 157 127 228 200 205 257 262 244 250 263 179 215 231 258 278 273 253 262 270 259 240 220
308 319 326 321 323 325 338 338 274 202 197 226 184 274 198 100 141 162 152 131 125 186 216 87 228 238 244 228 270 269 259 260 266 194 246 255 262 268 280 274 262 269 262 246 232
292 310 321 319 316 323 300 298 41 13 297 236 249 271 210 187 253 195 178 186 180 219 144 175 238 252 55 213 226 232 260 264 280 247 222 274 272 273 267 267 269 271 268 249 239
256 279 304 312 317 329 336 63 336 300 251 283 223 240 214 174 222 205 185 160 200 199 203 227 253 78 197 204 204 226 236 255 268 325 234 292 271 239 254 265 271 260 259 250 227
239 260 284 327 213 347 324 2 296 317 260 242 226 211 122 172 243 47 229 219 200 241 191 240 244 205 198 230 203 240 230 245 266 294 282 2 290 277 249 243 264 272 236 221 216
226 235 271 87 310 249 351 307 265 229 275 42 174 41 109 209 89 114 358 161 213 182 179 218 179 190 206 229 178 250 109 172 208 256 316 251 268 277 164 240 258 261 248 221 208
234 202 156 136 157 66 128 165 234 207 242 245 165 187 171 195 160 121 149 10 20 171 245 263 110 218 211 82 145 134 121 144 155 259 250 256 227 267 230 210 247 265 228 202 197
226 198 169 164 187 129 151 209 219 234 46 196 202 191 217 184 199 189 170 180 190 178 213 188 217 165 177 131 117 198 182 275 251 222 264 144 236 263 283 240 232 255 250 186 182
208 175 202 185 134 135 152 189 238 184 208 97 162 155 202 167 213 185 176 219 229 216 213 238 252 183 181 219 202 184 218 203 260 276 288 112 249 276 226 252 247 271 261 194 213
192 188 184 181 152 123 207 215 236 226 183 176 103 205 215 223 212 184 216 229 210 191 209 205 255 97 257 88 184 161 199 240 291 108 279 252 261 233 183 251 250 253 245 240 232
197 194 205 154 161 130 198 243 232 200 156 181 218 196 229 215 190 194 194 184 230 198 227 258 263 116 120 162 64 229 137 141 199 258 257 275 281 278 235 241 210 237 238 239 221
211 209 147 151 166 165 216 238 252 234 197 194 230 239 235 237 215 217 240 203 198 197 206 199 216 175 153 205 189 169 203 227 314 228 254 266 269 101 171 256 206 218 231 239 226
227 221 159 147 181 204 225 233 206 245 242 260 237 252 243 225 236 235 242 225 177 159 169 207 207 233 238 135 316 256 231 214 222 223 237 262 272 116 58 145 180 234 242 236 232
224 151 212 184 186 209 224 239 268 230 229 212 231 219 212 234 236 234 243 189 175 173 171 169 206 240 254 207 177 213 207 233 243 260 247 233 253 250 270 265 236 245 252 257 234
237 197 166 231 268 219 218 225 229 207 243 232 286 36 206 241 233 253 248 200 198 208 351 176 171 215 238 252 95 187 228 221 223 234 252 241 262 275 274 272 278 269 241 240 240
207 216 169 180 235 236 226 227 238 240 226 205 220 223 233 248 247 252 260 249 190 175 219 184 233 236 250 262 275 278 269 250 233 243 243 258 257 261 274 275 271 272 272 272 267
263 162 172 207 220 217 222 220 229 239 229 229 225 230 231 241 243 259 244 248 236 193 213 204 243 247 252 262 263 257 260 261 266 257 251 253 262 262 270 280 282 274 268 272 271
325 267 246 176 192 207 222 225 230 236 240 236 233 234 232 226 226 241 252 258 191 231 227 210 222 217 239 231 251 254 240 249 257 262 256 254 255 269 266 263 260 272 272 265 265